Regional Weather Roundup
Issued by NWS

Home | Current Version | Previous Version | Graphics & Text | Print | Product List | Glossary On
Versions: 1 2 3 4 5 6 7 8 9 10 11 12 13 14 15 16 17 18 19 20 21 22 23 24 25 26 27 28 29 30 31 32 33 34 35 36 37 38 39 40 41 42 43 44 45 46 47 48 49 50
000
ASUS43 KBIS 202102
RWRND

NORTH DAKOTA REGIONAL WEATHER ROUNDUP
NATIONAL WEATHER SERVICE BISMARCK ND
300 PM CST FRI JAN 20 2017

NOTE: "FAIR" INDICATES FEW OR NO CLOUDS BELOW 12,000 FEET WITH NO
SIGNIFICANT WEATHER AND/OR OBSTRUCTIONS TO VISIBILITY.


NDZ001>003-009>011-017-202200-
NORTHWEST NORTH DAKOTA

CITY           SKY/WX    TMP DP  RH WIND       PRES   REMARKS
WILLISTON      FAIR      31  25  78 W13       29.33F
MINOT          FAIR      27  23  85 S12       29.34S WCI  17
MINOT AFB      SUNNY     26  22  83 SE7       29.34S WCI  18
$$

NDZ018>021-031>035-040>046-202200-
SOUTHWEST NORTH DAKOTA

CITY           SKY/WX    TMP DP  RH WIND       PRES   REMARKS
BISMARCK       CLOUDY    31  29  92 CALM      29.35S FOG
DICKINSON      FAIR      32  27  81 NW13      29.28F
GARRISON         N/A     23  22  96 S3        29.33F
HETTINGER ARPT CLOUDY    32  27  81 NW12      29.29F
$$

NDZ004>008-012>016-024-026-027-054-202200-
NORTHEAST NORTH DAKOTA

CITY           SKY/WX    TMP DP  RH WIND       PRES   REMARKS
GRAND FORKS    FOG       36  33  89 SE8       29.45F VSB 1
GRND FRKS AFB  CLOUDY    34  34  99 SE8       29.45S FOG
DEVILS LAKE    CLOUDY    34  33  96 SE10      29.39F FOG
$$

NDZ022-023-025-028>030-036>039-047>053-202200-
SOUTHEAST NORTH DAKOTA

CITY           SKY/WX    TMP DP  RH WIND       PRES   REMARKS
FARGO          CLOUDY    38  35  89 SE12      29.45S FOG
JAMESTOWN      CLOUDY    34  34 100 E12       29.36F FOG
$$




USA.gov is the U.S. government's official web portal to all federal, state and local government web resources and services.